星链-1066 (STARLINK-1066 )

导读 | 星芒AI

STARLINK-1066 是 SpaceX 星链计划中的一颗低轨通信卫星,属于第 11 批部署的星链卫星群。该卫星于 2021 年 10 月发射,运行在约 550 公里的近地轨道,旨在为全球用户提供高速互联网服务。作为星链星座的一部分,STARLINK-1066 采用先进通信技术,支持宽带接入,助力偏远地区实现网络覆盖。该卫星具备自动避撞功能,以确保太空安全。

基本信息
目录编号:
44954
目录名称:
STARLINK-1066
国际标识:
2020-001AS
轨道中心:
EARTH
卫星名称:
星链-1066
卫星全名:
星链-1066 (STARLINK-1066 )
卫星状态:
已陨落 最后检测时间 2025-09-23
发射日期:
2020-01-07 UTC
国别 :
美国 (US)
星等 :
--
轨道信息
数据来源 国际轨道数据
星历时间: 2025-09-23T10:51:00+0800
轨道信息已过期36天
半长轴: 6527.838km
偏心率: 0.0004579
轨道倾角: 53.028°
近地点辐角 247.397°
升交点赤经 274.409°
平近点角 112.660°
近地点: 146.713km
远地点: 152.693km
周期: 87.481分钟
每日圈数: 16.460718
详细信息
固有亮度:
5
最大亮度:
2.5
卫星平台:
Starlink V1.0
覆盖范围:
全球
运营商:
太空探索技术公司
运营商所在国:
美国
制造商(研发单位):
太空探索技术公司
制造商所在国:
美国
使用方式:
暂无
卫星简介
星链(Starlink)计划是由太空探索技术公司(SpaceX)提出的一个巨型低轨卫星互联网星座项目,计划在2019年至2024年间在太空搭建由约1.2万颗卫星组成的“星链”网络,其中1584颗将部署在地球上空550千米处的近地轨道,并从2020年开始工作。该卫星仍在工作。